Regional Weather Roundup
Issued by NWS

Home | Current Version | Previous Version | Text Only | Print | Product List | Glossary On
Versions: 1 2 3 4 5 6 7 8 9 10 11 12 13 14 15 16 17 18 19 20 21 22 23 24 25 26 27
000
ASUS45 KBOU 261807
RWRCO

WEATHER ROUNDUP FOR COLORADO
NATIONAL WEATHER SERVICE DENVER/BOULDER CO
1200 PM MDT FRI AUG 26 2016

NOTE: "FAIR" INDICATES FEW OR NO CLOUDS BELOW 12000 FEET WITH NO
SIGNIFICANT WEATHER AND/OR OBSTRUCTIONS TO VISIBILITY.

COZ001>005-013-030-031-261900-
...NORTHWEST COLORADO...

CITY           SKY/WX    TMP DP  RH WIND       PRES   REMARKS
CRAIG          FAIR      70  38  31 CALM      30.20F
HAYDEN         FAIR      64  37  36 N6        30.22F
MEEKER         FAIR      69  42  37 SW9       30.21F
MOUNT WERNER   NOT AVBL
STEAMBOAT SPGS FAIR      64  39  39 CALM      30.23F
WALDEN         PTSUNNY   61  32  33 W8        30.28F
$$

COZ006>008-011-261900-
...WEST CENTRAL VALLEYS...

CITY           SKY/WX    TMP DP  RH WIND       PRES   REMARKS
GRAND JUNCTION FAIR      69  47  45 SE5       30.18F
MONTROSE       FAIR      67  48  50 VRB5      30.23F
EAGLE          MOSUNNY   64  45  48 CALM      30.26F
RIFLE          FAIR      65  49  56 W3        30.20F
DELTA          FAIR      72  44  35 CALM      30.21F
NUCLA          FAIR     N/A N/A N/A CALM      30.29F
$$

COZ017>023-064>068-261900-
...SOUTHWEST COLORADO...

CITY           SKY/WX    TMP DP  RH WIND       PRES   REMARKS
DURANGO        FAIR      64  43  46 CALM      30.30F
CORTEZ         FAIR      67  50  54 S5        30.26F
PAGOSA SPRINGS PTSUNNY   59  45  58 CALM      30.36S
TELLURIDE      PTSUNNY   56  42  59 W5        30.41S
WOLF CREEK PAS FOG       37  37 100 SW13      30.57S VSB 1/4
$$

COZ009-010-012-014-032>034-037-058>063-261900-
...CENTRAL COLORADO...

CITY           SKY/WX    TMP DP  RH WIND       PRES   REMARKS
ASPEN          FAIR      62  41  46 CALM      30.29F
BUENA VISTA    FAIR      62  40  43 CALM      30.30F
COPPER MTN     PTSUNNY   45  34  65 NW5       30.52S
BERTHOUD PASS  FAIR      37  27  65 NW17G26   30.52S
COTTONWOOD PAS FAIR      59  32  36 S5        30.41F
GUNNISON       FAIR      57  39  51 SE5       30.36F
KREMMLING      FAIR      64  34  32 CALM      30.27F
LEADVILLE      FAIR      53  32  44 N9        30.40F
MONARCH PASS   PTSUNNY   41  36  81 W15       30.63S
SALIDA         FAIR      64  42  45 N3        30.35F
SUNLIGHT       PTSUNNY   50  45  81 CALM      30.49F
WILKERSON PASS FAIR      46  37  71 W7        30.50S
$$

COZ069>075-261900-
...SAN LUIS VALLEY/SANGRE DE CRISTO MOUNTAINS...

CITY           SKY/WX    TMP DP  RH WIND       PRES   REMARKS
ALAMOSA        CLOUDY    58  45  62 CALM      30.32F
LA VETA PASS   PTSUNNY   50  41  71 S9G23     30.42S
SAGUACHE       FAIR      63  41  45 NW9G16    30.33F
$$

COZ035-036-038>040-261900-
...NORTHERN COLORADO FRONT RANGE...

CITY           SKY/WX    TMP DP  RH WIND       PRES   REMARKS
DENVER INTL AP FAIR      68  47  46 NW6       30.15F
DMNS CITY PARK   N/A     70  49  46 S3G9      30.14F
AURORA         MOSUNNY   66  46  48 VRB2      30.17F
FRONT RANGE AP MOSUNNY   70  48  46 NW3       30.17F
ERIE MUNI ARPT FAIR      72  43  34 CALM      30.13F
BOULDER MUN AP FAIR      70  48  46 SE6       30.14F
CENTENNIAL     FAIR      68  46  45 VRB3      30.18F
BROOMFIELD     NOT AVBL
FORT COLLINS   FAIR      72  48  43 E7        30.12F
LONGMONT       FAIR      73  49  42 E3        30.15S
$$

COZ041-046-047-076>085-087-088-261900-
...PIKES PEAK/PALMER DIVIDE AND SOUTHERN FOOTHILLS...

CITY           SKY/WX    TMP DP  RH WIND       PRES   REMARKS
COLO. SPRINGS  PTSUNNY   65  49  56 VRB7      30.21F
A. F. ACADEMY  FAIR      65  48  52 VRB3      30.20F
SCHRIEVER AFB  NOT AVBL
ELLICOTT       NOT AVBL
FALCON         PTSUNNY   64  49  59 S6        30.25S
FORT CARSON    FAIR      64  53  66 SE5       30.18F
LIMON          PTSUNNY   68  51  54 S10       30.17F
MONUMENT HILL  FAIR      63  41  45 NW9       30.25F
TRINIDAD       PTSUNNY   69  48  47 SW10      30.19F
$$

COZ042>045-048>051-090-091-261900-
...NORTHEAST COLORADO...

CITY           SKY/WX    TMP DP  RH WIND       PRES   REMARKS
GREELEY ARPT   FAIR      68  54  60 S6        30.13F
AKRON          CLOUDY    64  56  75 SE12      30.14F
BURLINGTON     CLOUDY    68  55  63 S15       30.14F
WRAY           NOT AVBL
STERLING       CLOUDY    66  57  72 S8        30.11F
HOLYOKE        FAIR      66  59  77 S5        30.14S
FORT MORGAN    FAIR      68  54  60 S6        30.13F
$$

COZ086-089-092>099-261900-
...SOUTHEAST COLORADO...

CITY           SKY/WX    TMP DP  RH WIND       PRES   REMARKS
PUEBLO         FAIR      68  53  58 S8        30.14F
LA JUNTA       FAIR      71  56  58 S6        30.13F
LAMAR          PTSUNNY   76  56  49 S9        30.09F
SPRINGFIELD      N/A     72  57  59 S10       30.14S
$$




USA.gov is the U.S. government's official web portal to all federal, state and local government web resources and services.